Location: Tambov
(52.7163°N, 41.4075°E)
Time: 01:18:38
(UTC+03:00)

Envisat - Pass Details

Date: 07 March 2021
Orbit: 764 x 766 km, 98.1° (Epoch: 22 April)

Event Time Altitude Azimuth Distance (km) Brightness Sun altitude
Rises 18:28:45 0° 216° (SW) 3,225 6.8 -4.5°
Reaches altitude 10° 18:32:04 10° 239° (WSW) 2,305 6.6 -5.0°
Maximum altitude 18:34:58 15° 275° (W) 1,972 6.7 -5.5°
Drops below altitude 10° 18:37:53 10° 310° (NW) 2,315 6.3 -5.9°
Sets 18:41:14 0° 333° (NNW) 3,248 6.6 -6.4°
